{"data":{"norad_id":49215,"intl_designator":"2021-083AF","name":"ONEWEB-0351","alt_names":[],"object_type":"PAYLOAD","status":"ACTIVE","operator":null,"country":"UK","launch_date":"2021-09-14","launch_site_code":"TYMSC","launch_vehicle":null,"mission":null,"orbit_class":"UNKNOWN","rcs_meters":null,"size_class":null,"mass_kg":null,"dimensions":null,"purposes":["comms"],"wikipedia_slug":null,"has_3d_model":false,"image_url":null,"decayed_at":null,"tle_current":{"epoch":"2026-05-24T22:12:03.633984Z","epoch_age_seconds":81299,"freshness":"FRESH","line1":"1 49215U 21083AF  26144.92504206 -.00000045  00000+0 -14207-3 0  9997","line2":"2 49215  87.9177 279.0768 0001070 112.2787 247.8459 13.20772610233700","mean_motion":13.2077261,"eccentricity":0.000107,"inclination_deg":87.9177,"raan_deg":279.0768,"arg_perigee_deg":112.2787,"mean_anomaly_deg":247.8459,"bstar":-0.00014207,"rev_number":23370,"period_min":109.02709437622,"perigee_km":1180.9614211187,"apogee_km":1182.5792412876,"semimajor_km":7559.9073312031,"source":"CELESTRAK","updated_at":"2026-05-25T13:38:22.517668Z"}}}